Location: Biharia
(46.4333°N, 22.8000°E)
Time: 00:28:54
(UTC+00:00)

Cosmos 2084 Rocket - Pass Details

Date: 16 October 2021
Orbit: 508 x 671 km, 62.8° (Epoch: 05 December)

Event Time Altitude Azimuth Distance (km) Brightness Sun altitude
Rises 16:19:59 0° 224° (SW) 2,606 7.6 -7.6°
Reaches altitude 10° 16:22:09 10° 226° (SW) 1,721 6.7 -8.0°
Maximum altitude 16:25:58 72° 311° (NW) 539 3.4 -8.6°
Drops below altitude 10° 16:29:52 10° 37° (NE) 1,750 5.5 -9.3°
Enters shadow 16:31:17 - 39° (NE) 2,329 6.1 -9.5°
